Terminal Aerodrome Forecast
Issued by NWS Lake Charles, LA

Home | Current Version | Previous Version | Text Only | Print | Product List | Glossary On
Versions: 1 2 3 4 5 6 7 8 9 10 11 12 13 14 15 16 17 18 19 20
799
FTUS44 KLCH 171725
TAFLCH
TAF
KLCH 171725Z 1718/1818 17011KT P6SM VCSH SCT025 BKN060
      TEMPO 1718/1720 BKN020
     FM180200 15005KT P6SM VCSH SCT006 OVC015
     FM180600 12005KT 4SM BR VCSH OVC004
     FM181500 15007KT 5SM -SHRA BR OVC008=

USA.gov is the U.S. government's official web portal to all federal, state and local government web resources and services.